Location: Artiguedieu
(43.5000°N, 0.5454°E)
Time: 18:36:51
(UTC+00:00)

Transit 2A Rocket - Pass Details

Date: 03 August 2021
Orbit: 586 x 916 km, 66.7° (Epoch: 21 September)

Event Time Altitude Azimuth Distance (km) Brightness Sun altitude
Rises 22:46:08 0° 323° (NW) 3,307 9.5 -26.7°
Reaches altitude 10° 22:48:33 10° 319° (NW) 2,421 8.4 -26.8°
Maximum altitude 22:53:57 50° 245° (WSW) 1,094 5.6 -27.2°
Enters shadow 22:54:06 50° 240° (WSW) 1,096 5.6 -27.2°
Drops below altitude 10° 22:59:42 10° 172° (S) 2,566 - -27.5°
Sets 23:02:20 0° 167° (SSE) 3,523 - -27.6°
